Ames, IA

10:30 AM CST on February 09, 2016 (GMT -0600)
Ames Municipal

Weather History for KAMW - March, 2013

Change the Weather History Date:

Sunday, March 24, 2013

  Actual Average Record
Temperature  
Mean Temperature 29 °F 41 °F  
Max Temperature 31 °F 52 °F 75 °F (2004)
Min Temperature 27 °F 30 °F 18 °F (2001)
Degree Days  
Heating Degree Days 36 24  
Month to date heating degree days 907 713  
Since 1 July heating degree days 5914 5998  
Cooling Degree Days 0 0  
Month to date cooling degree days 0 0  
Year to date cooling degree days 0 0  
Moisture  
Dew Point 26 °F    
Average Humidity 82    
Maximum Humidity 92    
Minimum Humidity 72    
Precipitation  
Precipitation 0.03 in 0.06 in 0.91 in (2007)
Month to date precipitation 1.68 1.52  
Sea Level Pressure  
Sea Level Pressure 29.95 in    
Wind  
Wind Speed 15 mph (NNW)    
Max Wind Speed 21 mph    
Max Gust Speed 28 mph    
Visibility 2 miles    
Events Fog , Snow    
T = Trace of Precipitation, MM = Missing Value Source: NWS Daily Summary

Daily Weather History Graph

Daily Weather History Graph

Search for Another Location

Airport or City:

Trip Planner

Search our weather history database for the weather conditions in past years. The results will help you decide how hot, cold, wet, or windy it might be!

Date:

Astronomy

Mar. 24, 2013 Rise Set
Actual Time 7:10 AM CDT 7:31 PM CDT
Civil Twilight 6:42 AM CDT 7:59 PM CDT
Nautical Twilight 6:09 AM CDT 8:32 PM CDT
Astronomical Twilight 5:36 AM CDT 9:06 PM CDT
Moon 4:58 PM CDT (3/24) 5:23 AM CDT (3/24)
Length of Visible Light 13h 16m
Length of Day
12h 21m
Waxing Gibbous, 92% of the Moon is Illuminated
Mar 24
Waxing Gibbous
Mar 27
Full
Apr 2
Last Quarter
Apr 10
New
Apr 18
First Quarter

Hourly Weather History & Observations

Time (CDT) Temp. Windchill Dew Point Humidity Pressure Visibility Wind Dir Wind Speed Gust Speed Precip Events Conditions
12:53 AM 30.0 °F 20.5 °F 23.0 °F 75% 30.05 in 10.0 mi NNE 11.5 mph - N/A   Overcast
1:53 AM 30.0 °F 22.4 °F 23.0 °F 75% 30.06 in 10.0 mi North 8.1 mph - N/A   Overcast
2:53 AM 30.0 °F 20.5 °F 23.0 °F 75% 30.04 in 9.0 mi North 11.5 mph - N/A   Overcast
3:53 AM 28.9 °F 18.6 °F 23.0 °F 78% 30.02 in 5.0 mi North 12.7 mph - 0.00 in Snow Light Snow
4:53 AM 28.0 °F 16.1 °F 24.1 °F 85% 30.00 in 3.0 mi North 16.1 mph 23.0 mph 0.00 in Snow Light Snow
5:36 AM 28.4 °F 18.5 °F 24.8 °F 86% 29.98 in 6.0 mi North 11.5 mph - 0.00 in   Overcast
5:53 AM 28.0 °F 17.0 °F 24.1 °F 85% 29.99 in 5.0 mi North 13.8 mph - 0.00 in   Overcast
6:32 AM 26.6 °F 15.7 °F 24.8 °F 93% 29.97 in 2.0 mi North 12.7 mph - 0.00 in Snow Light Snow
6:53 AM 27.0 °F 15.6 °F 24.1 °F 89% 29.99 in 2.0 mi NNW 13.8 mph 21.9 mph 0.00 in Snow Light Snow
7:23 AM 26.6 °F 14.7 °F 24.8 °F 93% 29.96 in 2.5 mi North 15.0 mph 21.9 mph 0.00 in Snow Light Snow
7:31 AM 26.6 °F 14.3 °F 24.8 °F 93% 29.96 in 1.8 mi North 16.1 mph - 0.00 in Snow Light Snow
7:42 AM 26.6 °F 14.7 °F 24.8 °F 93% 29.96 in 1.8 mi North 15.0 mph - 0.00 in Snow Light Snow
7:49 AM 26.6 °F 13.8 °F 24.8 °F 93% 29.96 in 2.5 mi North 17.3 mph - 0.00 in   Overcast
7:53 AM 27.0 °F 15.6 °F 24.1 °F 89% 29.99 in 3.0 mi North 13.8 mph - 0.00 in   Overcast
8:04 AM 26.6 °F 15.2 °F 24.8 °F 93% 29.97 in 6.0 mi NNW 13.8 mph - N/A   Overcast
8:53 AM 27.0 °F 14.7 °F 24.1 °F 89% 29.97 in 7.0 mi North 16.1 mph - N/A   Overcast
9:12 AM 28.4 °F 16.6 °F 24.8 °F 86% 29.95 in 2.5 mi NNW 16.1 mph - 0.00 in Snow Light Snow
9:27 AM 28.4 °F 17.0 °F 24.8 °F 86% 29.95 in 3.0 mi North 15.0 mph 24.2 mph 0.00 in Snow Light Snow
9:53 AM 28.0 °F 16.5 °F 25.0 °F 88% 29.98 in 4.0 mi North 15.0 mph - 0.00 in Snow Light Snow
10:33 AM 28.4 °F 16.6 °F 24.8 °F 86% 29.95 in 7.0 mi North 16.1 mph - 0.00 in   Overcast
10:49 AM 28.4 °F 15.8 °F 26.6 °F 93% 29.95 in 1.8 mi North 18.4 mph - 0.00 in Snow Light Snow
10:53 AM 28.9 °F 17.3 °F 25.0 °F 85% 29.97 in 1.2 mi North 16.1 mph - 0.00 in Snow Light Snow
11:18 AM 28.4 °F 17.5 °F 26.6 °F 93% 29.94 in 0.8 mi North 13.8 mph - 0.00 in Snow Light Snow
11:24 AM 28.4 °F 17.5 °F 26.6 °F 93% 29.95 in 1.0 mi NNW 13.8 mph - 0.00 in Snow Light Snow
11:31 AM 28.4 °F 18.0 °F 26.6 °F 93% 29.94 in 0.8 mi North 12.7 mph - 0.00 in Snow Light Snow
11:41 AM 28.4 °F 16.6 °F 26.6 °F 93% 29.94 in 0.8 mi North 16.1 mph - 0.00 in Snow Light Snow
11:48 AM 28.4 °F 16.2 °F 26.6 °F 93% 29.94 in 1.0 mi North 17.3 mph - 0.00 in Snow Light Snow
11:53 AM 28.9 °F 16.9 °F 26.1 °F 89% 29.96 in 1.0 mi NNW 17.3 mph - 0.00 in Snow Light Snow
12:29 PM 28.4 °F 16.2 °F 26.6 °F 93% 29.93 in 1.8 mi North 17.3 mph - 0.00 in Snow Light Snow
12:37 PM 28.4 °F 16.2 °F 26.6 °F 93% 29.93 in 2.0 mi NNW 17.3 mph - 0.00 in Snow Light Snow
12:53 PM 30.0 °F 18.3 °F 27.0 °F 88% 29.95 in 3.0 mi North 17.3 mph 23.0 mph 0.00 in Snow Light Snow
1:53 PM 30.0 °F 18.3 °F 26.1 °F 85% 29.94 in 3.0 mi NNW 17.3 mph - 0.00 in Snow Light Snow
2:01 PM 30.2 °F 17.8 °F 26.6 °F 86% 29.91 in 2.0 mi North 19.6 mph 24.2 mph 0.00 in Snow Light Snow
2:09 PM 30.2 °F 18.5 °F 26.6 °F 86% 29.91 in 1.8 mi North 17.3 mph - 0.00 in Snow Light Snow
2:25 PM 30.2 °F 18.1 °F 26.6 °F 86% 29.91 in 2.0 mi NNW 18.4 mph - 0.00 in Snow Light Snow
2:43 PM 30.2 °F 19.3 °F 26.6 °F 86% 29.91 in 2.0 mi NNW 15.0 mph - 0.00 in Snow Light Snow
2:53 PM 30.0 °F 17.5 °F 26.1 °F 85% 29.93 in 2.5 mi NNW 19.6 mph - 0.00 in Snow Light Snow
3:03 PM 30.2 °F 18.1 °F 26.6 °F 86% 29.90 in 2.0 mi NNW 18.4 mph - 0.00 in Snow Light Snow
3:17 PM 30.2 °F 19.8 °F 26.6 °F 86% 29.90 in 3.0 mi NNW 13.8 mph - 0.00 in Snow Light Snow
3:22 PM 30.2 °F 18.9 °F 26.6 °F 86% 29.90 in 1.8 mi NNW 16.1 mph 23.0 mph 0.00 in Snow Light Snow
3:37 PM 30.2 °F 18.1 °F 26.6 °F 86% 29.90 in 0.8 mi NNW 18.4 mph - 0.00 in Snow Light Snow
3:51 PM 30.2 °F 20.2 °F 26.6 °F 86% 29.90 in 1.0 mi NNW 12.7 mph - 0.00 in Snow Light Snow
3:52 PM 30.0 °F 20.0 °F 27.0 °F 88% 29.93 in 1.0 mi NNW 12.7 mph - 0.00 in Snow Light Snow
4:21 PM 30.2 °F 17.8 °F 26.6 °F 86% 29.90 in 1.8 mi NNW 19.6 mph - 0.00 in Snow Light Snow
4:28 PM 30.2 °F 17.8 °F 26.6 °F 86% 29.90 in 1.8 mi NW 19.6 mph - 0.00 in Snow Light Snow
4:35 PM 30.2 °F 18.1 °F 26.6 °F 86% 29.90 in 1.8 mi NNW 18.4 mph - 0.00 in Snow Light Snow
4:53 PM 30.0 °F 17.9 °F 27.0 °F 88% 29.93 in 1.0 mi NNW 18.4 mph - 0.00 in Snow Light Snow
5:53 PM 30.0 °F 17.9 °F 27.0 °F 88% 29.94 in 1.2 mi NNW 18.4 mph - 0.00 in Snow Light Snow
6:20 PM 30.2 °F 18.9 °F 26.6 °F 86% 29.93 in 1.2 mi NNW 16.1 mph 27.6 mph 0.00 in Snow Light Snow
6:53 PM 28.9 °F 17.7 °F 27.0 °F 92% 29.96 in 1.2 mi NNW 15.0 mph 21.9 mph 0.00 in Snow Light Snow
7:11 PM 28.4 °F 17.0 °F 26.6 °F 93% 29.94 in 0.8 mi NNW 15.0 mph 20.7 mph 0.00 in Snow Light Snow
7:34 PM 28.4 °F 17.5 °F 26.6 °F 93% 29.94 in 1.0 mi NNW 13.8 mph 21.9 mph 0.00 in Snow Light Snow
7:44 PM 28.4 °F 17.0 °F 26.6 °F 93% 29.95 in 1.2 mi NNW 15.0 mph - 0.00 in Snow Light Snow
7:53 PM 28.9 °F 18.2 °F 27.0 °F 92% 29.98 in 1.2 mi NNW 13.8 mph - 0.00 in Snow Light Snow
8:00 PM 28.4 °F 17.5 °F 26.6 °F 93% 29.95 in 1.5 mi NW 13.8 mph - 0.00 in Snow Light Snow
8:21 PM 28.4 °F 17.0 °F 26.6 °F 93% 29.95 in 1.2 mi NNW 15.0 mph 24.2 mph 0.00 in Snow Light Snow
8:48 PM 28.4 °F 17.5 °F 26.6 °F 93% 29.95 in 0.5 mi North 13.8 mph - 0.02 in Fog , Snow Snow
8:53 PM 28.0 °F 17.5 °F 27.0 °F 96% 29.99 in 0.8 mi North 12.7 mph - 0.02 in Snow Light Snow
9:02 PM 28.4 °F 18.0 °F 26.6 °F 93% 29.96 in 1.2 mi North 12.7 mph - 0.01 in Snow Light Snow
9:22 PM 28.4 °F 18.0 °F 26.6 °F 93% 29.96 in 1.8 mi NNW 12.7 mph - 0.01 in Snow Light Snow
9:29 PM 28.4 °F 18.0 °F 26.6 °F 93% 29.96 in 2.0 mi North 12.7 mph - 0.01 in Snow Light Snow
9:53 PM 28.0 °F 16.5 °F 26.1 °F 92% 29.99 in 2.5 mi North 15.0 mph - 0.01 in Snow Light Snow
10:18 PM 28.4 °F 18.0 °F 26.6 °F 93% 29.96 in 2.0 mi NNW 12.7 mph - 0.00 in Snow Light Snow
10:28 PM 28.4 °F 17.5 °F 26.6 °F 93% 29.97 in 1.8 mi North 13.8 mph - 0.00 in Snow Light Snow
10:35 PM 28.4 °F 18.5 °F 26.6 °F 93% 29.97 in 2.0 mi NNW 11.5 mph - 0.00 in Snow Light Snow
10:53 PM 28.0 °F 17.5 °F 26.1 °F 92% 29.99 in 2.5 mi North 12.7 mph - 0.00 in Snow Light Snow
11:53 PM 28.0 °F 17.0 °F 26.1 °F 92% 29.99 in 2.5 mi North 13.8 mph - 0.00 in Snow Light Snow